RYR946 EPKK-LOWW

Flight info

Callsign RYR946
Flight time 0h 43m
Altitude 24000
Route BABKO DCT VADEX DCT BABNI DCT TUTPI P182 REKLU REKLU3W
Aircraft B738/M-SDE2E3FGHIRWXY/LB1

Departure

Time 2026-04-26 20:01
Airport Kraków John Paul II International Airport (EPKK)

Arrival

Time 2026-04-26 20:45
Airport Vienna International Airport (LOWW)
Time Latitude Longitude Altitude Speed Heading
2026-04-26 19:11 50.07363 19.80241 798 ft 0 kts 166°
2026-04-26 19:45 50.07368 19.80239 797 ft 2 kts 166°
2026-04-26 19:45 50.07383 19.80233 798 ft 2 kts 166°
2026-04-26 19:45 50.07397 19.80228 798 ft 2 kts 166°
2026-04-26 19:46 50.07407 19.80224 798 ft 1 kts 167°
2026-04-26 19:46 50.07420 19.80212 798 ft 2 kts 123°
2026-04-26 19:46 50.07424 19.80190 798 ft 1 kts 86°
2026-04-26 19:46 50.07423 19.80181 798 ft 1 kts 73°
2026-04-26 19:47 50.07422 19.80175 798 ft 0 kts 77°
2026-04-26 19:51 50.07423 19.80178 798 ft 2 kts 77°
2026-04-26 19:51 50.07434 19.80260 798 ft 13 kts 78°
2026-04-26 19:51 50.07465 19.80376 798 ft 9 kts 27°
2026-04-26 19:52 50.07532 19.80407 798 ft 9 kts 15°
2026-04-26 19:52 50.07598 19.80419 798 ft 9 kts 353°
2026-04-26 19:52 50.07663 19.80397 798 ft 9 kts 347°
2026-04-26 19:52 50.07726 19.80374 798 ft 9 kts 347°
2026-04-26 19:53 50.07790 19.80353 798 ft 9 kts 349°
2026-04-26 19:53 50.07836 19.80338 798 ft 0 kts 347°
2026-04-26 19:58 50.07845 19.80335 798 ft 5 kts 347°
2026-04-26 19:58 50.07885 19.80321 798 ft 6 kts 347°
2026-04-26 19:58 50.07926 19.80307 798 ft 5 kts 347°
2026-04-26 19:59 50.07966 19.80293 798 ft 6 kts 347°
2026-04-26 19:59 50.08007 19.80272 798 ft 6 kts 320°
2026-04-26 19:59 50.08011 19.80204 798 ft 0 kts 257°
2026-04-26 20:00 50.07990 19.80050 798 ft 45 kts 259°
2026-04-26 20:01 50.07875 19.79219 798 ft 109 kts 258°
2026-04-26 20:01 50.07675 19.77778 800 ft 160 kts 258°
2026-04-26 20:01 50.07431 19.76087 1412 ft 157 kts 262°
2026-04-26 20:01 50.07216 19.74388 1901 ft 168 kts 264°
2026-04-26 20:02 50.06972 19.72666 2600 ft 163 kts 262°
2026-04-26 20:02 50.06708 19.70864 2920 ft 180 kts 262°
2026-04-26 20:02 50.06443 19.68944 3426 ft 187 kts 262°
2026-04-26 20:02 50.06221 19.67583 3632 ft 201 kts 255°
2026-04-26 20:03 50.04985 19.65272 4060 ft 234 kts 207°
2026-04-26 20:03 50.03357 19.64561 4525 ft 250 kts 191°
2026-04-26 20:03 50.01601 19.64075 4982 ft 265 kts 193°
2026-04-26 20:03 49.99754 19.63420 5545 ft 275 kts 196°
2026-04-26 20:04 49.97897 19.62652 6213 ft 281 kts 198°
2026-04-26 20:04 49.96032 19.61840 6986 ft 283 kts 199°
2026-04-26 20:04 49.94126 19.61006 7668 ft 289 kts 199°
2026-04-26 20:04 49.92168 19.60153 8362 ft 295 kts 199°
2026-04-26 20:05 49.90181 19.59296 9089 ft 300 kts 200°
2026-04-26 20:05 49.88136 19.58419 9806 ft 305 kts 200°
2026-04-26 20:05 49.86093 19.57544 10503 ft 311 kts 201°
2026-04-26 20:05 49.83975 19.56635 10974 ft 326 kts 201°
2026-04-26 20:06 49.81721 19.55664 11424 ft 341 kts 201°
2026-04-26 20:06 49.79387 19.54662 11914 ft 355 kts 201°
2026-04-26 20:06 49.77011 19.53650 12599 ft 362 kts 201°
2026-04-26 20:06 49.74583 19.52621 13340 ft 367 kts 201°
2026-04-26 20:07 49.72126 19.51581 14049 ft 372 kts 201°
2026-04-26 20:07 49.69626 19.50524 14883 ft 375 kts 201°
2026-04-26 20:07 49.67100 19.49454 15687 ft 378 kts 202°
2026-04-26 20:07 49.64578 19.48356 16433 ft 381 kts 204°
2026-04-26 20:08 49.62123 19.46919 17160 ft 379 kts 213°
2026-04-26 20:08 49.59924 19.44779 17893 ft 371 kts 227°
2026-04-26 20:08 49.58028 19.42112 18555 ft 371 kts 233°
2026-04-26 20:08 49.56242 19.39252 19343 ft 370 kts 235°
2026-04-26 20:09 49.54499 19.36336 20072 ft 372 kts 236°
2026-04-26 20:09 49.52763 19.33416 20738 ft 375 kts 234°
2026-04-26 20:09 49.50990 19.30457 21461 ft 377 kts 234°
2026-04-26 20:09 49.49210 19.27507 22137 ft 379 kts 234°
2026-04-26 20:10 49.47410 19.24549 22802 ft 381 kts 234°
2026-04-26 20:10 49.45607 19.21601 23406 ft 385 kts 234°
2026-04-26 20:10 49.43773 19.18614 24039 ft 386 kts 233°
2026-04-26 20:10 49.41921 19.15605 24240 ft 391 kts 233°
2026-04-26 20:11 49.40051 19.12577 24243 ft 389 kts 233°
2026-04-26 20:11 49.38209 19.09607 24250 ft 387 kts 233°
2026-04-26 20:11 49.36354 19.06617 24253 ft 389 kts 233°
2026-04-26 20:12 49.32629 19.00620 24260 ft 388 kts 233°
2026-04-26 20:12 49.30783 18.97650 24263 ft 388 kts 233°
2026-04-26 20:12 49.28917 18.94654 24267 ft 388 kts 233°
2026-04-26 20:12 49.27056 18.91668 24271 ft 387 kts 233°
2026-04-26 20:13 49.25258 18.88637 24279 ft 385 kts 236°
2026-04-26 20:13 49.23621 18.85451 24277 ft 382 kts 240°
2026-04-26 20:13 49.22086 18.82158 24275 ft 381 kts 241°
2026-04-26 20:13 49.20587 18.78798 24278 ft 381 kts 242°
2026-04-26 20:14 49.19112 18.75449 24267 ft 381 kts 242°
2026-04-26 20:14 49.17648 18.72126 24272 ft 381 kts 242°
2026-04-26 20:14 49.16150 18.68742 24267 ft 381 kts 242°
2026-04-26 20:14 49.14665 18.65410 24270 ft 382 kts 242°
2026-04-26 20:15 49.13183 18.62102 24266 ft 382 kts 242°
2026-04-26 20:15 49.11680 18.58760 24267 ft 382 kts 241°
2026-04-26 20:15 49.10176 18.55429 24263 ft 381 kts 241°
2026-04-26 20:15 49.08682 18.52129 24266 ft 382 kts 241°
2026-04-26 20:16 49.07172 18.48801 24267 ft 382 kts 241°
2026-04-26 20:16 49.05653 18.45461 24266 ft 381 kts 241°
2026-04-26 20:16 49.04143 18.42145 24270 ft 380 kts 241°
2026-04-26 20:16 49.02647 18.38864 24263 ft 381 kts 241°
2026-04-26 20:17 49.01123 18.35516 24272 ft 382 kts 241°
2026-04-26 20:17 48.99611 18.32204 24275 ft 383 kts 240°
2026-04-26 20:17 48.98096 18.28875 24280 ft 382 kts 241°
2026-04-26 20:17 48.97147 18.26652 24282 ft 380 kts 243°
2026-04-26 20:18 48.95475 18.21926 24283 ft 376 kts 249°
2026-04-26 20:18 48.94395 18.18345 24279 ft 375 kts 250°
2026-04-26 20:18 48.93362 18.14702 24281 ft 375 kts 251°
2026-04-26 20:18 48.92352 18.11054 24284 ft 374 kts 251°
2026-04-26 20:19 48.91342 18.07398 24282 ft 374 kts 251°
2026-04-26 20:19 48.90341 18.03795 24276 ft 375 kts 251°
2026-04-26 20:19 48.89319 18.00148 24264 ft 376 kts 251°
2026-04-26 20:19 48.88296 17.96520 24254 ft 375 kts 251°
2026-04-26 20:20 48.87259 17.92864 24258 ft 376 kts 251°
2026-04-26 20:20 48.86227 17.89243 24258 ft 376 kts 251°
2026-04-26 20:20 48.85197 17.85637 24259 ft 376 kts 250°
2026-04-26 20:20 48.84156 17.82003 24263 ft 376 kts 250°
2026-04-26 20:21 48.83114 17.78374 24265 ft 376 kts 251°
2026-04-26 20:21 48.82065 17.74731 24262 ft 375 kts 250°
2026-04-26 20:21 48.81028 17.71130 24265 ft 375 kts 250°
2026-04-26 20:21 48.79981 17.67507 24267 ft 375 kts 250°
2026-04-26 20:22 48.78936 17.63889 24268 ft 376 kts 250°
2026-04-26 20:22 48.77877 17.60232 24267 ft 376 kts 250°
2026-04-26 20:22 48.76837 17.56649 24268 ft 375 kts 250°
2026-04-26 20:22 48.75789 17.53035 24271 ft 375 kts 250°
2026-04-26 20:23 48.74736 17.49413 24271 ft 376 kts 250°
2026-04-26 20:23 48.73683 17.45799 24271 ft 376 kts 250°
2026-04-26 20:23 48.72692 17.42151 24271 ft 372 kts 254°
2026-04-26 20:23 48.71991 17.38488 24199 ft 356 kts 262°
2026-04-26 20:24 48.71683 17.34846 23926 ft 345 kts 268°
2026-04-26 20:24 48.71632 17.31231 23522 ft 339 kts 272°
2026-04-26 20:24 48.71661 17.27706 23075 ft 335 kts 271°
2026-04-26 20:24 48.71435 17.24245 22637 ft 334 kts 259°
2026-04-26 20:25 48.70627 17.20975 22196 ft 332 kts 245°
2026-04-26 20:25 48.69867 17.18984 21958 ft 325 kts 242°
2026-04-26 20:25 48.68218 17.15194 21396 ft 322 kts 240°
2026-04-26 20:25 48.66967 17.12416 20991 ft 319 kts 240°
2026-04-26 20:26 48.65728 17.09652 20591 ft 316 kts 240°
2026-04-26 20:26 48.64518 17.06928 20186 ft 313 kts 241°
2026-04-26 20:26 48.63324 17.04218 19786 ft 310 kts 241°
2026-04-26 20:26 48.62147 17.01533 19393 ft 308 kts 241°
2026-04-26 20:27 48.60972 16.98847 18999 ft 306 kts 241°
2026-04-26 20:27 48.59837 16.96132 18590 ft 302 kts 246°
2026-04-26 20:27 48.58995 16.93309 18296 ft 293 kts 257°
2026-04-26 20:27 48.58572 16.90327 18293 ft 297 kts 266°
2026-04-26 20:28 48.58353 16.87151 18279 ft 303 kts 269°
2026-04-26 20:28 48.58202 16.84006 18284 ft 302 kts 270°
2026-04-26 20:28 48.58062 16.80832 18275 ft 302 kts 270°
2026-04-26 20:28 48.57910 16.77704 18283 ft 303 kts 268°
2026-04-26 20:29 48.57527 16.74580 18281 ft 307 kts 255°
2026-04-26 20:29 48.56460 16.71734 18284 ft 317 kts 233°
2026-04-26 20:29 48.54727 16.69624 18280 ft 325 kts 213°
2026-04-26 20:29 48.52620 16.68327 18286 ft 333 kts 199°
2026-04-26 20:30 48.50348 16.67668 18285 ft 336 kts 191°
2026-04-26 20:30 48.47996 16.67302 18278 ft 337 kts 188°
2026-04-26 20:30 48.45667 16.67032 18282 ft 337 kts 188°
2026-04-26 20:30 48.43339 16.66762 18286 ft 337 kts 188°
2026-04-26 20:31 48.41007 16.66459 18282 ft 337 kts 189°
2026-04-26 20:31 48.38670 16.66128 18283 ft 336 kts 189°
2026-04-26 20:31 48.36337 16.65779 18271 ft 337 kts 189°
2026-04-26 20:31 48.33996 16.65420 17810 ft 343 kts 189°
2026-04-26 20:32 48.31636 16.65058 17368 ft 341 kts 189°
2026-04-26 20:32 48.29295 16.64702 16947 ft 339 kts 189°
2026-04-26 20:32 48.26934 16.64345 16518 ft 337 kts 189°
2026-04-26 20:32 48.24611 16.63994 16105 ft 334 kts 189°
2026-04-26 20:33 48.22305 16.63720 15701 ft 333 kts 184°
2026-04-26 20:33 48.20008 16.64053 15283 ft 335 kts 166°
2026-04-26 20:33 48.17969 16.65648 14896 ft 334 kts 139°
2026-04-26 20:33 48.16539 16.68318 14515 ft 329 kts 117°
2026-04-26 20:34 48.15537 16.71347 13942 ft 332 kts 114°
2026-04-26 20:34 48.14545 16.74507 13132 ft 342 kts 114°
2026-04-26 20:34 48.13525 16.77706 12327 ft 342 kts 114°
2026-04-26 20:34 48.12498 16.80884 11681 ft 336 kts 114°
2026-04-26 20:35 48.11492 16.83984 11113 ft 329 kts 114°
2026-04-26 20:35 48.10504 16.87022 10538 ft 323 kts 114°
2026-04-26 20:35 48.09539 16.89989 9966 ft 317 kts 114°
2026-04-26 20:35 48.08575 16.92947 9389 ft 313 kts 114°
2026-04-26 20:36 48.07635 16.95825 8828 ft 309 kts 114°
2026-04-26 20:36 48.06699 16.98692 8242 ft 305 kts 114°
2026-04-26 20:36 48.05777 17.01515 7690 ft 301 kts 114°
2026-04-26 20:36 48.04874 17.04279 7102 ft 298 kts 114°
2026-04-26 20:37 48.03780 17.06911 6503 ft 300 kts 133°
2026-04-26 20:37 48.02122 17.08713 5940 ft 295 kts 159°
2026-04-26 20:37 48.00171 17.09292 5430 ft 285 kts 185°
2026-04-26 20:37 47.98308 17.08576 4945 ft 273 kts 211°
2026-04-26 20:38 47.96925 17.06772 4461 ft 262 kts 239°
2026-04-26 20:38 47.96263 17.04324 3970 ft 253 kts 261°
2026-04-26 20:38 47.96024 17.01793 3692 ft 242 kts 266°
2026-04-26 20:38 47.95971 16.99312 3474 ft 236 kts 282°
2026-04-26 20:39 47.96539 16.97106 3268 ft 229 kts 302°
2026-04-26 20:39 47.97089 16.95727 3131 ft 231 kts 304°
2026-04-26 20:39 47.98298 16.93092 3020 ft 228 kts 309°
2026-04-26 20:39 47.99285 16.91218 3011 ft 230 kts 312°
2026-04-26 20:40 48.00293 16.89357 3012 ft 231 kts 307°
2026-04-26 20:40 48.01133 16.87311 3017 ft 232 kts 300°
2026-04-26 20:40 48.01847 16.85149 3018 ft 230 kts 297°
2026-04-26 20:40 48.02502 16.83072 3013 ft 218 kts 298°
2026-04-26 20:41 48.03173 16.81030 3021 ft 216 kts 298°
2026-04-26 20:41 48.03824 16.79078 3023 ft 203 kts 299°
2026-04-26 20:41 48.04433 16.77237 3023 ft 195 kts 299°
2026-04-26 20:41 48.05038 16.75406 3027 ft 197 kts 298°
2026-04-26 20:42 48.05637 16.73589 3019 ft 191 kts 298°
2026-04-26 20:42 48.06218 16.71824 2752 ft 191 kts 298°
2026-04-26 20:42 48.06805 16.70044 2452 ft 191 kts 298°
2026-04-26 20:42 48.07383 16.68284 2205 ft 184 kts 298°
2026-04-26 20:43 48.07935 16.66602 1990 ft 175 kts 298°
2026-04-26 20:43 48.08446 16.65044 1753 ft 161 kts 298°
2026-04-26 20:43 48.08922 16.63595 1499 ft 151 kts 298°
2026-04-26 20:43 48.09378 16.62208 1305 ft 144 kts 298°
2026-04-26 20:44 48.09826 16.60860 1108 ft 145 kts 297°
2026-04-26 20:44 48.10266 16.59500 930 ft 144 kts 298°
2026-04-26 20:44 48.10707 16.58169 740 ft 144 kts 298°
2026-04-26 20:44 48.11144 16.56833 603 ft 136 kts 296°
2026-04-26 20:45 48.11457 16.55876 587 ft 69 kts 297°
2026-04-26 20:45 48.11617 16.55425 583 ft 42 kts 308°
2026-04-26 20:45 48.11769 16.55186 583 ft 9 kts 315°
2026-04-26 20:45 48.11826 16.55148 583 ft 9 kts 351°
2026-04-26 20:46 48.11880 16.55183 583 ft 8 kts 71°
2026-04-26 20:46 48.11862 16.55269 583 ft 8 kts 117°
2026-04-26 20:46 48.11834 16.55352 583 ft 9 kts 117°
2026-04-26 20:46 48.11850 16.55423 583 ft 8 kts 24°
2026-04-26 20:47 48.11906 16.55443 583 ft 8 kts
2026-04-26 20:47 48.11943 16.55463 583 ft 8 kts 26°
2026-04-26 20:47 48.12015 16.55514 582 ft 8 kts 26°